Total_Precipitation_Accumulation
0.10 0.23 0.47 0.85 1.44 2.05 2.22 1.65 1.23 1.06 0.93 0.85 0.69 0.61 0.70 0.98 1.29 2.03 2.09 1.81 1.25 1.17 1.30 1.27 1.24 1.02 0.90 0.92 0.95 0.95 0.95 0.91 0.84 0.95 1.18 1.36 1.59 1.80 1.82 1.87 2.09 2.40 2.43 2.33 2.26 1.96 1.69 1.57 1.39
0.17 0.29 0.56 1.03 1.83 2.56 2.33 1.50 1.13 1.02 0.80 0.71 0.66 0.64 0.75 0.91 0.95 1.27 1.69 1.51 1.03 0.93 0.95 0.87 0.94 0.93 0.86 0.85 0.84 0.83 0.85 0.85 0.85 0.96 1.15 1.32 1.47 1.70 1.84 2.00 2.22 2.41 2.29 2.22 1.94 1.65 1.46 1.32 1.16
0.29 0.42 0.61 1.08 1.55 2.14 1.91 1.35 0.94 0.81 0.70 0.73 0.87 0.79 0.98 1.26 1.28 1.49 1.42 1.11 0.93 0.85 0.78 0.90 0.92 0.86 0.83 0.79 0.82 0.83 0.84 0.83 0.88 0.96 1.11 1.27 1.46 1.69 1.83 1.87 2.08 2.12 1.98 1.89 1.71 1.52 1.27 1.11 1.02
0.28 0.51 0.63 0.91 1.05 1.05 1.18 1.19 0.83 0.86 0.85 0.75 0.84 1.13 1.26 1.31 1.30 1.44 1.34 1.10 0.83 0.81 0.79 0.85 0.89 0.84 0.85 0.79 0.75 0.80 0.81 0.86 0.91 1.05 1.19 1.29 1.52 1.68 1.70 1.76 2.02 1.99 1.85 1.74 1.61 1.38 1.12 0.97 0.89
0.22 0.45 0.73 0.88 0.99 0.88 0.88 0.91 0.75 0.80 0.83 0.82 0.87 1.36 1.68 1.58 1.23 1.20 1.19 1.11 0.86 0.97 0.98 0.91 0.95 0.93 0.87 0.77 0.70 0.75 0.79 0.87 0.92 1.07 1.22 1.29 1.42 1.50 1.58 1.76 1.92 1.86 1.72 1.56 1.43 1.26 1.05 0.99 0.99
0.18 0.41 0.75 0.83 0.88 0.73 0.73 0.75 0.69 0.74 0.81 0.90 1.08 1.51 1.96 1.83 1.54 1.43 1.35 1.20 0.98 1.00 1.05 1.01 1.08 1.04 0.98 0.83 0.74 0.80 0.88 0.95 1.00 1.07 1.13 1.19 1.25 1.33 1.50 1.76 1.89 1.76 1.50 1.37 1.34 1.23 1.08 1.03 1.06
0.14 0.30 0.61 0.66 0.76 0.77 0.69 0.59 0.64 0.83 1.08 1.15 1.25 1.64 1.97 2.33 2.08 1.76 1.69 1.55 1.29 1.17 1.13 1.11 1.11 0.99 1.03 1.00 0.90 0.94 1.07 1.10 1.08 1.08 1.09 1.12 1.20 1.31 1.51 1.81 1.90 1.70 1.41 1.30 1.25 1.22 1.09 0.99 1.03
0.10 0.19 0.36 0.53 0.63 0.72 0.60 0.53 0.54 0.72 1.12 1.09 1.15 1.47 1.99 2.02 1.98 2.16 2.11 2.09 1.80 1.59 1.36 1.23 1.28 1.25 1.12 1.09 1.07 1.18 1.25 1.26 1.23 1.17 1.23 1.31 1.40 1.45 1.67 1.83 1.83 1.63 1.41 1.32 1.25 1.24 1.10 1.04 1.05
0.09 0.20 0.27 0.43 0.51 0.51 0.41 0.42 0.46 0.62 0.81 0.99 1.20 1.25 1.50 1.44 1.65 2.09 2.34 2.57 2.47 1.94 1.70 1.46 1.34 1.29 1.21 1.17 1.25 1.56 1.56 1.48 1.46 1.50 1.54 1.63 1.88 1.99 2.18 2.00 1.94 1.72 1.58 1.58 1.51 1.51 1.39 1.25 1.16
0.08 0.20 0.21 0.24 0.30 0.30 0.28 0.31 0.37 0.66 1.11 1.49 1.61 1.51 1.47 1.52 1.91 2.23 2.29 2.38 2.53 2.12 1.78 1.71 1.59 1.43 1.33 1.17 1.33 1.79 1.65 1.60 1.75 1.92 1.85 2.08 2.48 2.76 2.40 2.35 2.34 2.27 2.22 2.11 2.13 2.19 1.82 1.49 1.57
0.05 0.10 0.13 0.18 0.20 0.21 0.24 0.30 0.35 0.61 1.19 1.56 1.70 1.71 1.74 1.72 2.12 2.49 2.62 2.44 2.47 2.30 1.96 1.84 1.74 1.65 1.65 1.75 1.57 1.73 1.85 1.97 2.06 2.10 2.18 2.39 2.44 2.62 2.71 2.75 2.77 2.81 2.63 2.49 2.71 2.66 2.09 2.11 2.52
0.03 0.04 0.09 0.14 0.18 0.21 0.22 0.26 0.44 0.63 1.02 1.32 1.37 1.77 1.99 1.94 2.31 2.56 2.68 2.80 2.68 2.55 2.24 2.01 1.88 1.88 1.96 1.91 1.87 1.82 1.92 1.99 2.17 2.36 2.36 2.63 3.00 3.10 3.18 3.16 2.98 3.07 3.06 3.26 3.23 3.27 2.82 2.82 2.60
0.03 0.04 0.08 0.10 0.15 0.19 0.23 0.27 0.34 0.66 0.84 1.07 1.28 1.65 1.88 1.93 2.32 2.65 2.94 3.05 3.00 2.71 2.38 2.32 2.07 2.00 2.05 2.23 2.36 2.10 2.34 2.37 2.44 2.68 2.83 2.95 3.26 3.32 3.35 3.29 3.28 2.97 3.04 3.27 3.63 3.50 3.70 3.67 3.24
0.02 0.04 0.08 0.10 0.13 0.18 0.32 0.42 0.44 0.81 0.87 1.01 1.28 1.71 1.80 1.82 2.08 2.11 2.50 2.86 2.96 2.69 2.51 2.45 2.31 2.34 2.41 2.46 2.58 2.70 2.86 2.97 2.90 2.94 3.06 3.13 3.33 3.65 3.67 3.59 3.52 3.15 3.04 3.36 3.70 3.70 4.23 4.11 3.90
0.04 0.09 0.14 0.16 0.19 0.26 0.37 0.64 0.68 0.89 0.96 1.20 1.27 1.45 1.61 1.62 1.78 1.99 2.28 2.62 2.70 2.48 2.56 2.69 2.78 2.98 3.07 3.10 3.09 3.07 3.21 3.25 3.38 3.69 3.76 3.81 3.71 3.85 3.73 3.68 3.51 3.43 3.36 3.53 3.63 3.76 4.19 3.95 3.89
0.08 0.18 0.29 0.30 0.29 0.33 0.53 1.11 1.01 1.06 1.04 1.13 1.15 1.32 1.41 1.47 1.65 1.99 2.16 2.44 2.61 2.50 2.61 2.84 2.89 3.30 3.49 3.59 3.70 3.63 3.61 3.63 3.90 4.12 4.30 4.25 4.05 3.87 3.94 3.68 3.47 3.56 3.51 3.71 4.04 4.05 4.15 4.28 4.20
0.15 0.22 0.31 0.37 0.26 0.27 0.49 0.92 0.88 0.96 1.17 1.07 1.07 1.14 1.20 1.27 1.41 1.64 1.91 2.25 2.59 2.87 3.14 3.47 3.53 3.51 3.62 3.84 4.02 3.81 3.83 3.83 3.85 3.95 4.21 4.12 3.80 3.65 4.01 3.84 3.82 3.74 3.95 3.86 3.54 4.15 4.36 4.36 4.26
0.13 0.20 0.28 0.32 0.30 0.27 0.41 0.64 0.80 0.91 1.02 1.11 1.12 1.21 1.30 1.44 1.69 1.89 2.22 2.44 2.72 3.24 3.64 3.87 3.88 4.12 4.44 4.65 4.57 4.34 4.00 3.80 3.69 3.75 3.90 3.81 3.74 3.60 3.93 3.72 3.68 3.85 4.24 4.32 4.18 4.45 4.37 4.22 4.28
0.11 0.21 0.26 0.29 0.33 0.37 0.46 0.54 0.85 1.09 1.19 1.33 1.51 1.75 1.92 2.09 2.17 2.35 2.73 3.00 3.17 3.31 3.58 3.88 4.25 4.63 4.76 4.60 4.54 4.52 4.31 4.05 3.68 3.53 3.62 3.65 3.41 3.44 3.86 3.55 3.94 3.98 4.17 4.31 4.25 4.47 4.39 4.17 4.28
0.13 0.22 0.29 0.34 0.37 0.37 0.53 0.65 0.88 1.33 1.48 1.44 1.50 1.52 1.57 2.00 2.20 2.43 2.76 2.90 2.87 3.06 3.37 3.79 4.25 4.58 4.50 4.63 4.86 4.85 4.66 4.03 3.70 3.59 3.58 3.44 3.26 3.21 3.35 3.89 3.86 3.97 4.19 4.24 4.17 4.23 4.03 3.75 4.10
0.15 0.19 0.25 0.32 0.45 0.43 0.55 0.98 1.15 1.44 1.58 1.46 1.41 1.42 1.38 1.57 1.88 2.01 2.21 2.37 2.61 3.03 3.51 3.85 4.18 4.32 4.34 4.57 4.73 4.47 4.28 3.82 3.69 3.70 3.59 3.37 3.29 3.27 3.41 3.68 3.77 3.85 3.74 3.98 4.15 3.96 3.91 3.80 3.83
0.17 0.16 0.18 0.27 0.45 0.60 0.66 1.30 1.58 1.77 1.65 1.38 1.39 1.44 1.54 1.66 1.75 1.87 1.90 2.21 2.59 3.03 3.63 4.06 4.09 4.16 4.02 4.16 4.32 4.19 3.85 3.61 3.50 3.49 3.27 3.13 3.03 3.02 3.14 3.31 3.51 3.66 3.57 3.74 3.61 3.67 3.85 3.88 3.69
0.14 0.13 0.15 0.25 0.38 0.61 0.73 1.13 1.60 1.69 1.60 1.29 1.20 1.40 1.63 1.61 1.67 1.90 1.85 2.04 2.32 2.75 3.17 3.60 3.95 4.01 3.82 3.77 3.85 4.01 3.84 3.55 3.32 3.21 3.12 3.05 3.01 2.81 2.79 3.01 3.26 3.43 3.31 3.28 3.47 3.79 3.73 3.63 3.59
0.11 0.13 0.22 0.36 0.58 0.99 0.77 0.87 1.30 1.55 1.44 1.19 1.19 1.32 1.49 1.66 1.67 1.83 2.08 2.14 2.29 2.56 2.92 3.23 3.46 3.44 3.38 3.34 3.38 3.51 3.57 3.52 3.28 3.09 3.13 3.08 2.92 2.75 2.67 2.78 3.13 3.23 3.16 3.13 3.23 3.31 3.36 3.40 3.58
0.12 0.24 0.64 1.06 1.36 1.18 0.80 0.87 1.22 1.18 1.01 0.93 1.00 1.27 1.52 1.79 1.81 1.85 2.03 2.15 2.25 2.36 2.55 2.71 2.80 2.85 2.82 2.85 2.83 2.82 2.95 3.03 2.92 2.83 2.90 2.92 2.79 2.67 2.66 2.65 2.81 2.74 2.74 2.83 3.07 3.10 3.05 3.11 3.24
0.16 0.28 0.69 0.94 1.09 1.03 0.94 1.15 1.21 0.96 0.82 0.84 0.91 1.10 1.40 1.58 1.62 1.73 1.81 1.75 1.77 1.83 1.97 2.13 2.22 2.24 2.21 2.30 2.40 2.42 2.62 2.64 2.64 2.76 2.66 2.69 2.62 2.59 2.54 2.48 2.43 2.36 2.38 2.44 2.80 2.89 2.83 2.94 2.96
0.23 0.30 0.32 0.52 0.66 1.05 1.25 1.33 1.21 0.89 1.01 1.00 1.08 1.14 1.20 1.27 1.32 1.34 1.37 1.43 1.54 1.58 1.66 1.78 1.88 1.88 1.81 1.88 2.06 2.14 2.22 2.34 2.43 2.54 2.44 2.31 2.34 2.22 2.29 2.28 2.20 2.16 2.25 2.40 2.52 2.53 2.53 2.69 2.66
0.24 0.37 0.50 0.73 0.99 1.18 1.33 1.57 1.74 1.54 1.45 1.30 1.40 1.62 1.37 1.11 1.15 1.19 1.18 1.23 1.25 1.31 1.43 1.59 1.68 1.82 1.82 1.79 1.85 1.83 1.94 2.04 2.22 2.30 2.18 2.20 2.29 2.23 2.15 2.10 2.02 2.03 2.09 2.16 2.33 2.28 2.36 2.36 2.35
0.36 0.45 0.55 0.69 0.80 1.09 1.45 1.64 1.42 1.57 1.55 1.47 1.41 1.44 1.32 1.01 0.94 1.03 0.99 1.01 1.07 1.14 1.25 1.40 1.69 1.85 1.79 1.64 1.70 1.81 1.79 1.87 1.97 2.03 1.96 2.06 2.17 2.31 2.28 2.21 2.16 2.02 1.96 2.04 2.13 2.00 2.13 2.14 2.14
0.30 0.44 0.55 0.72 0.81 0.91 1.16 1.42 1.03 1.16 1.14 1.11 1.17 1.04 0.96 0.91 0.74 0.86 0.91 0.86 0.91 0.96 1.07 1.25 1.48 1.65 1.67 1.62 1.65 1.77 1.84 1.82 1.78 1.75 1.79 1.85 1.89 1.97 1.99 1.95 1.96 1.95 2.03 2.13 2.04 1.98 2.01 2.09 2.05